Theta_e
313 313 314 315 316 316 316 317 317 317 317 317 317 318 319 320 320 321 321 320 320 319 319 319 321 322 322 322 323 323 323 323 322 322 323 323 323 323 323 324 324 323
312 312 313 314 316 316 317 317 317 318 318 318 318 319 319 320 320 320 321 321 320 320 319 318 318 320 321 321 322 323 323 323 322 322 323 323 322 322 323 324 324 324
310 311 312 314 315 317 317 318 318 318 319 319 320 320 320 320 320 320 320 320 319 319 318 316 317 320 320 320 321 322 322 321 321 322 322 322 322 322 323 324 324 323
310 312 313 314 316 317 318 318 318 318 319 319 320 319 320 320 320 320 319 318 317 316 316 315 317 319 320 319 320 319 320 321 321 322 321 320 320 321 321 321 321 320
311 313 314 315 317 317 317 318 318 318 318 318 318 318 318 318 318 318 317 316 315 315 315 315 317 319 319 318 318 318 320 321 321 321 320 319 319 320 319 318 318 319
310 313 314 315 316 317 317 317 317 317 317 317 317 316 316 316 315 315 315 315 315 315 315 315 316 318 318 317 317 318 320 320 319 319 319 318 318 318 318 318 318 318
310 312 314 315 316 316 316 316 316 316 316 316 316 315 315 314 313 314 315 315 315 315 315 314 315 316 317 318 318 319 319 319 318 318 317 317 316 316 316 317 317 317
310 313 314 315 316 315 315 315 315 315 315 315 314 314 314 312 311 312 314 315 315 314 313 313 313 316 318 318 317 318 318 318 317 317 316 316 316 315 314 314 315 315
310 313 315 315 315 315 314 314 314 314 314 314 313 313 313 311 310 311 312 313 313 311 311 311 312 315 318 318 316 317 317 317 317 317 317 316 314 312 311 310 310 310
311 313 315 315 315 314 314 314 313 313 313 313 313 313 311 309 308 310 310 310 309 308 308 309 311 314 316 316 316 316 316 316 316 315 314 312 310 308 307 306 305 305
312 313 315 315 314 314 314 313 313 313 313 313 312 312 310 306 305 308 308 307 306 306 307 308 310 312 313 314 314 314 314 313 313 311 310 307 305 304 303 302 302 302
312 312 314 314 313 314 313 313 313 313 313 312 311 310 308 302 300 302 303 302 303 304 305 307 309 310 311 311 311 310 310 309 308 306 305 303 302 301 300 300 299 299
312 312 313 312 312 313 312 312 312 312 311 310 308 307 304 299 297 298 298 298 300 302 304 305 307 307 307 305 305 305 305 304 303 302 301 300 299 299 299 299 299 299
312 312 312 312 312 312 312 311 311 310 309 306 305 304 302 298 297 297 297 297 299 300 302 303 303 302 301 300 300 301 301 300 300 299 299 298 298 298 298 298 299 299
313 312 312 311 311 312 311 311 310 309 306 302 301 301 299 297 297 298 298 298 298 299 299 300 300 299 299 299 300 299 298 298 299 298 298 298 298 298 298 298 298 298
312 312 311 311 311 311 311 310 309 307 303 299 298 298 297 297 297 297 297 297 297 298 298 298 298 298 299 300 299 298 297 297 298 297 297 297 296 297 297 297 297 297
311 311 310 311 311 310 310 309 309 307 302 299 297 297 297 298 297 296 296 296 297 297 297 297 297 298 299 299 298 297 296 296 296 296 295 295 295 295 295 295 295 295
310 311 310 310 310 310 309 309 309 307 303 299 298 297 297 297 296 296 296 296 296 296 296 297 296 297 298 298 297 296 295 295 295 294 294 294 294 294 294 294 294 294
310 311 310 310 310 309 309 309 308 307 304 301 298 297 297 297 296 296 296 296 296 295 296 296 295 296 296 296 295 295 294 294 294 294 294 294 294 294 294 294 294 294
309 310 310 310 309 309 309 309 308 307 305 301 298 297 297 296 295 295 296 296 296 295 295 295 295 295 295 295 294 294 294 294 294 294 294 294 294 294 294 294 294 293
309 310 310 310 309 309 308 308 308 307 304 300 298 297 296 295 295 295 295 296 296 295 295 295 295 295 295 294 294 294 294 294 294 294 294 294 294 294 294 294 293 293
309 310 310 310 309 308 307 306 306 306 303 300 298 297 296 296 296 296 296 296 296 295 295 295 295 295 295 295 294 294 294 294 294 294 294 294 294 294 293 293 293 293
308 309 309 309 308 307 306 305 306 305 302 300 298 297 296 297 298 297 296 296 296 295 295 295 295 295 295 295 294 294 294 294 294 294 293 293 293 293 293 293 293 292
306 308 309 308 307 306 305 304 305 304 302 301 300 299 298 298 299 300 298 296 295 295 295 295 295 295 295 295 294 294 294 294 294 294 293 293 293 293 293 293 293 292
305 307 308 307 306 304 303 302 303 303 303 303 302 301 301 301 301 301 300 298 296 295 295 295 295 295 295 295 294 294 294 294 294 294 294 293 293 293 293 293 293 292
304 307 307 306 305 303 301 301 302 303 304 304 303 303 303 302 302 301 300 299 298 296 295 295 295 295 295 295 294 294 294 294 294 294 293 294 293 293 293 293 292 292
Wind_Speed
7 7 7 7 8 9 10 10 10 10 10 10 9 10 11 10 10 10 11 12 12 12 12 12 9 6 6 7 7 6 6 8 7 6 7 5 4 3 3 3 4 5
8 7 6 6 8 9 9 9 10 10 10 10 9 9 11 11 10 10 11 11 12 12 11 11 10 7 6 5 4 4 6 7 7 7 6 7 7 6 6 5 4 5
8 6 4 5 7 8 8 9 10 10 10 9 9 10 10 11 11 10 11 12 12 11 11 10 9 6 6 5 4 3 4 6 6 6 6 5 5 5 4 4 3 4
6 3 4 5 6 8 8 9 9 9 9 9 10 10 10 11 11 11 12 13 13 11 10 9 7 5 5 6 6 5 4 5 5 6 6 5 5 5 4 4 4 5
5 3 5 5 6 8 8 8 8 8 8 9 10 10 11 12 12 12 12 12 12 10 9 8 5 4 4 5 5 5 4 4 4 5 5 5 5 5 5 6 6 6
5 3 4 5 6 7 8 8 8 8 9 9 10 11 12 13 13 12 12 10 10 8 8 7 5 3 4 5 5 4 3 3 4 5 6 6 6 6 7 7 8 8
4 2 2 3 5 6 8 9 9 9 10 10 11 12 13 13 12 11 10 9 8 7 7 7 5 5 5 5 5 4 2 3 4 5 8 9 10 11 10 8 8 9
3 2 1 2 3 5 7 9 9 10 10 11 12 13 13 12 12 10 9 8 8 7 7 6 5 4 4 4 4 3 2 3 4 7 10 11 12 13 11 8 8 8
3 2 2 3 3 5 7 9 9 10 11 12 13 12 12 11 11 9 8 8 7 7 6 5 4 3 3 3 3 3 3 5 6 8 9 10 11 11 11 9 8 8
3 2 3 4 4 5 6 8 9 10 11 12 12 12 11 10 9 8 7 7 7 6 5 5 4 3 3 3 3 4 6 7 8 8 8 9 9 9 9 9 8 8
4 3 4 4 4 5 6 8 9 9 10 11 11 10 9 8 8 7 6 6 6 5 5 5 4 4 3 3 4 5 7 7 8 8 8 9 10 10 9 9 8 9
6 4 5 5 5 5 7 8 9 9 9 10 11 9 7 7 6 5 4 4 4 4 4 4 4 4 4 5 5 6 7 7 8 8 9 10 10 10 10 10 10 10
7 6 6 5 5 5 6 7 8 9 10 11 10 8 6 6 5 4 3 4 4 3 3 3 4 4 5 6 7 7 8 9 9 9 9 10 10 10 10 10 10 10
8 7 6 6 5 5 6 7 8 10 11 11 9 6 5 4 4 4 5 5 4 3 3 4 4 4 5 7 9 9 9 9 9 10 10 10 10 10 11 12 12 12
10 9 8 7 6 5 6 7 9 10 10 8 7 5 5 4 5 5 6 5 5 4 4 3 3 4 7 10 11 11 11 11 10 10 10 11 11 11 12 13 14 15
11 10 8 7 7 6 7 8 9 10 8 6 6 5 5 5 5 5 5 5 5 5 4 3 3 6 10 11 12 12 12 12 11 11 11 11 12 12 13 14 15 15
11 10 9 8 7 7 8 8 9 8 6 5 5 5 4 5 5 5 4 5 5 5 4 4 5 8 10 11 11 12 13 12 12 11 10 11 11 12 13 14 14 15
12 11 10 9 8 8 8 8 8 7 5 4 4 3 4 4 4 4 4 5 6 5 4 4 6 8 9 10 10 11 11 11 11 11 10 10 11 11 12 13 14 14
13 13 11 10 9 9 8 8 7 6 5 4 3 2 3 3 3 3 4 5 6 5 4 5 6 7 8 9 9 10 10 10 10 10 10 10 10 11 11 12 13 13
14 14 13 11 11 10 8 8 7 6 5 3 0 2 3 2 2 3 4 5 5 5 5 5 5 6 7 8 9 9 9 9 9 9 9 9 9 10 10 11 12 12
15 14 14 13 12 10 9 8 7 6 4 2 2 3 3 2 2 3 3 3 4 5 5 4 4 5 6 7 7 8 8 8 8 8 8 8 8 9 9 10 11 11
16 15 15 14 12 11 10 8 8 6 4 3 4 4 4 3 2 2 2 3 3 4 4 3 4 5 5 6 6 6 7 7 7 7 7 8 8 9 9 10 10 11
17 16 16 14 13 12 10 9 8 7 5 4 5 5 5 3 2 1 1 2 2 3 3 3 4 5 5 5 6 6 6 6 6 7 7 8 8 9 9 10 10 11
17 17 16 15 13 11 10 9 9 8 6 5 5 5 5 4 3 2 1 1 2 2 3 3 4 4 5 5 5 5 5 5 5 6 8 8 8 9 9 9 10 10
17 17 16 14 12 11 10 9 9 9 8 7 6 6 5 5 4 4 2 1 2 2 3 3 4 4 4 4 4 4 4 4 5 6 7 8 8 8 9 9 9 9
17 17 16 14 12 11 10 10 10 10 10 9 8 8 7 6 5 4 3 2 2 2 2 3 3 3 3 3 3 3 3 4 5 6 6 7 7 7 8 8 7 7
Wind_Direction
336 330 329 335 339 339 338 339 341 343 343 341 335 330 328 334 344 350 354 358 1 4 8 9 7 360 353 345 347 5 3 352 355 355 350 352 345 332 333 327 314 316
322 317 319 333 339 337 336 339 343 345 346 345 342 334 328 332 341 349 353 354 355 357 359 3 6 9 11 3 358 12 5 359 12 22 24 33 38 39 40 32 16 1
316 310 324 341 341 338 339 343 347 350 352 350 345 339 334 336 343 350 349 345 346 349 348 351 0 7 7 7 2 348 347 359 19 29 29 40 55 64 58 45 17 352
320 321 352 357 344 340 342 347 351 351 351 349 345 343 341 341 341 341 340 339 339 343 346 350 357 353 347 358 3 356 357 3 11 18 15 22 45 55 47 31 11 5
332 349 6 359 342 339 343 346 348 346 346 345 344 344 342 339 338 339 339 339 341 347 354 357 358 348 340 350 360 7 14 9 10 14 4 5 28 40 32 20 16 19
324 341 5 350 336 337 341 341 341 341 343 344 346 346 343 341 340 342 344 347 353 360 2 5 5 354 349 356 11 26 22 9 19 9 352 354 5 11 10 7 15 24
305 316 348 336 331 335 336 336 338 339 341 345 349 347 344 345 344 345 352 358 4 5 1 3 4 3 11 18 28 38 16 8 14 350 347 360 6 6 9 12 18 23
275 268 286 297 316 328 329 332 334 336 340 343 344 341 340 343 345 348 355 359 359 356 352 354 358 10 29 26 21 22 353 342 342 339 352 2 360 1 9 16 16 15
260 233 238 263 292 311 316 323 328 331 336 338 339 340 340 341 344 349 353 354 354 352 350 356 4 17 26 8 3 356 330 330 341 350 0 1 359 7 21 28 26 22
247 206 216 248 274 296 307 316 321 326 331 333 336 341 342 343 347 350 353 354 355 358 5 15 22 29 18 358 356 351 347 353 3 6 6 8 16 28 34 34 32 29
226 196 210 241 263 284 299 308 314 321 326 329 332 338 344 348 350 351 352 353 355 6 18 25 29 29 18 5 5 5 5 7 10 14 17 22 30 34 34 34 33 34
220 202 208 237 258 276 294 302 309 317 322 324 329 338 350 352 352 354 354 354 2 15 20 23 26 25 21 20 19 16 14 14 16 19 21 24 27 30 33 35 34 37
223 214 213 237 257 272 290 298 307 315 316 318 328 345 359 357 2 17 18 16 26 30 25 24 23 17 18 22 23 21 17 15 15 18 20 24 29 33 38 39 40 43
221 223 224 240 254 265 283 294 304 313 316 321 332 353 5 13 29 38 35 35 36 31 29 29 19 18 32 38 37 33 27 23 23 25 29 34 36 39 43 44 45 46
219 225 230 239 243 258 281 293 307 318 325 334 348 6 20 38 46 43 40 39 36 32 34 36 37 49 56 55 50 42 36 34 35 36 39 41 43 45 47 48 48 47
219 224 229 233 236 258 280 293 310 323 334 351 6 18 34 47 47 43 44 44 40 42 49 61 72 70 65 59 53 46 41 41 43 44 45 45 47 49 50 51 51 51
219 221 225 231 239 261 279 291 310 324 339 4 15 22 33 45 48 46 52 56 51 50 59 73 77 73 68 60 53 47 43 46 49 47 47 48 49 52 55 56 56 57
219 223 226 230 242 261 275 286 303 319 333 359 17 32 40 43 50 58 67 68 60 52 59 68 71 73 69 60 55 52 48 48 52 50 47 49 52 55 58 60 60 60
220 224 226 232 245 260 271 279 292 309 328 350 18 62 68 54 59 70 75 76 70 62 59 61 67 72 69 61 57 56 52 50 51 51 48 49 52 57 61 62 61 59
219 221 224 234 246 255 263 268 274 292 315 331 49 117 106 90 81 77 75 81 78 69 59 57 62 66 66 63 59 57 55 51 50 50 47 47 52 57 60 64 64 58
218 219 226 237 245 250 255 255 258 276 293 267 197 156 139 125 100 83 76 79 78 70 57 49 54 61 61 60 59 58 56 51 48 48 45 45 50 55 58 63 64 59
218 221 229 237 242 243 244 242 244 256 259 228 204 180 166 150 117 86 71 69 73 73 64 51 56 65 63 59 56 55 53 50 46 44 41 42 47 51 53 57 61 61
218 222 229 236 240 238 234 232 232 237 236 218 206 197 189 179 155 106 72 71 78 80 70 57 58 63 61 58 54 47 46 47 44 41 38 38 41 45 47 51 56 61
218 221 228 235 237 233 230 227 224 227 229 213 205 207 208 208 204 189 140 93 101 99 78 57 50 51 53 53 49 42 39 39 36 37 35 31 34 39 40 43 49 56
216 221 229 235 235 231 228 223 219 223 225 214 209 212 215 221 220 206 197 167 115 104 86 60 41 37 38 37 38 35 30 28 29 32 31 26 28 34 34 36 42 49
214 221 229 232 229 225 223 220 216 219 223 221 218 218 220 230 232 219 205 182 132 97 82 60 34 23 18 14 19 20 15 18 23 26 26 20 22 30 31 31 38 47